Regional Weather Roundup
Issued by NWS Goodland, KS

Home | Current Version | Previous Version | Text Only | Print | Product List | Glossary Off
Versions: 1 2 3 4 5 6 7 8 9 10 11 12 13 14 15 16 17 18 19 20 21 22 23 24 25 26 27 28 29 30 31 32 33 34 35 36 37 38 39 40 41 42 43 44 45 46 47 48 49 50

989
ASUS43 KGLD 100008
RWRGLD

GOODLAND FORECAST AREA HOURLY WEATHER ROUNDUP
NATIONAL WEATHER SERVICE GOODLAND KS
500 PM MST TUE FEB 09 2016

...OFFICIAL OBSERVATIONS...

CITY           SKY/WX    TMP DP  RH WIND       PRES   REMARKS
GOODLAND KS    CLEAR     42  30  62 W10       30.22S
HILL CITY KS   CLOUDY    35  24  64 SE5       30.27R
IMPERIAL NEB   CLOUDY    42  30  62 W10       30.18F
MCCOOK NEB     CLOUDY    36  23  59 S6        30.21F
AKRON CO       CLEAR     40  31  70 W9        30.24F
BURLINGTON CO  CLEAR     40  29  64 NW10      30.24F
LIMON CO       CLEAR     37  26  64 W7        30.30R
$$

...UNOFFICIAL OBSERVATIONS...

CITY           SKY/WX    TMP DP  RH WIND       PRES   REMARKS
COLBY KS       PTCLDY    37  32  81 SW6       30.23S
GOVE KS          N/A     41  32  70 MISG        N/A
LENORA KS        N/A     35  32  89 MISG        N/A
NORTON KS      CLOUDY    34  19  55 SE5       30.23S
SHARON SPRINGS   N/A     43  33  67 NW12        N/A
KIT CARSON CO    N/A     47  31  53 MISG        N/A
YUMA CO          N/A     42  32  68 W9          N/A
$$




USA.gov is the U.S. government's official web portal to all federal, state and local government web resources and services.